Location: Sabalos
(43.2860°N, 0.1414°E)
Time: 04:24:51
(UTC+00:00)

Cosmos 1408 Rocket - Pass Details

Date: 05 July 2020
Orbit: 601 x 630 km, 82.6° (Epoch: 06 August)

Event Time Altitude Azimuth Distance (km) Brightness Sun altitude
Exits shadow 23:35:56 61° 88° (E) 701 3.7 -23.7°
Drops below altitude 10° 23:40:12 10° 15° (NNE) 1,994 7.1 -23.8°
Sets 23:42:28 0° 12° (NNE) 2,910 8.2 -23.9°
